This is the latest recevied weather packets stored in our database for station/object YO6LRV-3. If no packets are shown the sender has not sent any weather packets the latest 10 day(s).
| Time | Temp. | Humidity | Pressure | Rain* | Wind** | Luminosity | Snow |
|---|---|---|---|---|---|---|---|
| 1778054772 | 19.44° C | 44% | 1013.6 hPa | - | - | - | - |
| 1778053872 | 18.89° C | 44% | 1013.6 hPa | - | - | - | - |
| 1778052972 | 18.33° C | 44% | 1013.7 hPa | - | - | - | - |
| 1778052072 | 17.78° C | 42% | 1013.7 hPa | - | - | - | - |
| 1778051174 | 17.22° C | 44% | 1013.6 hPa | - | - | - | - |
| 1778050274 | 16.67° C | 44% | 1013.5 hPa | - | - | - | - |
| 1778049374 | 16.67° C | 45% | 1013.6 hPa | - | - | - | - |
| 1778048474 | 16.11° C | 46% | 1013.6 hPa | - | - | - | - |
| 1778047574 | 15.56° C | 46% | 1013.7 hPa | - | - | - | - |
| 1778045774 | 15.56° C | 47% | 1013.5 hPa | - | - | - | - |
| 1778043973 | 15° C | 46% | 1013.3 hPa | - | - | - | - |
| 1778043073 | 14.44° C | 45% | 1013.3 hPa | - | - | - | - |
| 1778042173 | 14.44° C | 44% | 1013.3 hPa | - | - | - | - |
| 1778041266 | 14.44° C | 44% | 1013.2 hPa | - | - | - | - |
| 1778040373 | 14.44° C | 44% | 1013 hPa | - | - | - | - |
| 1778039473 | 14.44° C | 43% | 1012.8 hPa | - | - | - | - |
| 1778038566 | 14.44° C | 43% | 1012.8 hPa | - | - | - | - |
| 1778037673 | 14.44° C | 43% | 1012.6 hPa | - | - | - | - |
| 1778036772 | 14.44° C | 41% | 1012.7 hPa | - | - | - | - |
| 1778035872 | 15° C | 40% | 1012.7 hPa | - | - | - | - |
| 1778034972 | 15° C | 40% | 1012.6 hPa | - | - | - | - |
| 1778034072 | 15° C | 40% | 1012.5 hPa | - | - | - | - |
| 1778033172 | 15° C | 40% | 1012.4 hPa | - | - | - | - |
| 1778032272 | 15° C | 39% | 1012.4 hPa | - | - | - | - |
| 1778031371 | 15.56° C | 39% | 1012.5 hPa | - | - | - | - |
* Rain since midnight (hover to see other rain measurements)
** Current wind speed in m/s (hover to see current wind gust speed)